AXB27E VOMM-VOBL

Flight info

Callsign AXB27E
Flight time N/A
Altitude 20000
Route MMV W117 BIA
Aircraft B738/M-SDE2E3FGHIRWXY/LB1

Departure

Time 2026-05-08 08:42
Airport Chennai International Airport (VOMM)

Arrival

Time N/A
Airport Kempegowda International Airport Bengaluru (VOBL)
Time Latitude Longitude Altitude Speed Heading
2026-05-08 08:15 12.98175 80.15874 50 ft 0 kts 156°
2026-05-08 08:33 12.98177 80.15874 50 ft 1 kts 155°
2026-05-08 08:33 12.98190 80.15869 49 ft 2 kts 170°
2026-05-08 08:33 12.98205 80.15868 48 ft 2 kts 179°
2026-05-08 08:34 12.98220 80.15868 48 ft 2 kts 191°
2026-05-08 08:34 12.98234 80.15872 47 ft 2 kts 201°
2026-05-08 08:34 12.98247 80.15879 46 ft 2 kts 212°
2026-05-08 08:34 12.98259 80.15888 46 ft 2 kts 223°
2026-05-08 08:35 12.98269 80.15899 46 ft 2 kts 233°
2026-05-08 08:35 12.98277 80.15913 46 ft 2 kts 245°
2026-05-08 08:35 12.98282 80.15927 46 ft 2 kts 250°
2026-05-08 08:35 12.98287 80.15941 46 ft 2 kts 248°
2026-05-08 08:36 12.98293 80.15955 46 ft 2 kts 249°
2026-05-08 08:36 12.98294 80.15958 46 ft 0 kts 249°
2026-05-08 08:39 12.98290 80.15945 46 ft 4 kts 258°
2026-05-08 08:39 12.98290 80.15915 46 ft 7 kts 277°
2026-05-08 08:39 12.98305 80.15848 46 ft 11 kts 287°
2026-05-08 08:39 12.98330 80.15760 46 ft 15 kts 284°
2026-05-08 08:40 12.98361 80.15649 45 ft 17 kts 288°
2026-05-08 08:40 12.98396 80.15514 44 ft 18 kts 283°
2026-05-08 08:40 12.98403 80.15405 44 ft 12 kts 256°
2026-05-08 08:40 12.98421 80.15359 44 ft 7 kts 14°
2026-05-08 08:41 12.98447 80.15389 43 ft 5 kts 61°
2026-05-08 08:41 12.98460 80.15414 43 ft 3 kts 63°
2026-05-08 08:41 12.98473 80.15443 43 ft 9 kts 66°
2026-05-08 08:41 12.98573 80.15707 42 ft 93 kts 68°
2026-05-08 08:42 12.98881 80.16567 68 ft 180 kts 71°
2026-05-08 08:42 12.99360 80.17772 760 ft 211 kts 69°
2026-05-08 08:42 13.00080 80.18875 2151 ft 210 kts 41°
2026-05-08 08:43 13.02235 80.19409 3237 ft 253 kts 346°
2026-05-08 08:43 13.03741 80.18562 3815 ft 275 kts 314°
2026-05-08 08:43 13.04549 80.17079 4694 ft 274 kts 280°
2026-05-08 08:43 13.04420 80.15291 6189 ft 254 kts 250°
2026-05-08 08:44 13.03839 80.13769 7507 ft 244 kts 249°
2026-05-08 08:44 13.03511 80.12232 8777 ft 236 kts 261°